Vorticity
8 7 8 5 9 6 9 -0 8 1 -1 5 5 6 4 1 8 2 8 9 3 3 -1 -1 4 2 1 1 4 5 3 4 1 1 5 7 15 19 17 14 11 7 4 4 3 3 3 2 1
4 7 8 6 5 6 5 7 1 1 2 6 6 2 1 6 1 6 4 0 3 1 -2 -2 -4 -4 1 3 1 0 4 2 4 4 2 4 5 13 23 24 15 11 9 4 3 3 2 1 1
5 5 4 5 5 4 5 2 1 2 1 -0 4 10 5 4 1 7 5 -2 2 1 0 -2 0 -2 -1 1 2 4 2 3 4 5 2 1 2 4 7 16 28 21 18 11 12 6 6 10 11
5 2 4 7 3 5 3 -0 -2 -4 2 5 4 14 5 -0 4 1 6 0 1 -2 -1 -1 2 0 1 0 1 1 3 3 2 2 6 5 2 2 2 4 6 15 19 18 14 14 16 16 17
4 2 4 6 2 4 2 2 0 2 2 3 4 3 13 1 4 -1 0 -1 -0 0 -1 1 1 -0 2 2 1 -0 1 2 2 2 3 3 7 5 3 2 5 4 3 3 6 3 3 3 1
1 3 6 9 2 6 4 5 5 4 4 5 7 4 3 4 13 7 7 2 0 -0 3 4 1 1 1 1 -0 1 1 1 2 2 2 4 3 4 7 5 2 3 4 5 3 4 4 5 3
2 3 3 5 4 5 5 4 6 5 5 5 6 6 6 5 3 1 18 4 3 1 -2 1 5 4 2 2 1 3 2 2 5 4 3 1 2 2 3 4 7 7 2 2 3 4 4 4 3
3 0 2 4 4 4 3 2 3 6 4 3 4 3 5 10 6 4 2 3 22 9 3 3 1 3 5 3 3 3 1 1 2 5 5 2 2 4 3 3 4 4 7 10 4 2 3 2 2
2 2 1 3 4 2 3 2 2 3 5 4 3 4 2 4 7 10 7 3 3 4 9 18 18 16 12 7 5 3 3 1 -0 5 5 2 3 5 5 4 4 5 5 5 6 8 7 6 4
3 2 2 2 3 3 2 4 3 4 5 5 6 8 5 4 3 5 7 8 3 1 1 4 6 9 11 7 7 5 4 2 2 3 4 2 2 4 6 7 5 3 3 4 5 4 6 5 5
7 5 4 3 3 3 4 3 3 4 4 6 5 7 9 9 6 3 5 7 6 4 5 4 5 4 10 10 8 7 8 4 3 3 3 4 2 3 6 5 3 4 4 5 5 5 5 6 6
6 5 5 5 5 5 4 3 3 2 2 3 5 6 7 9 8 6 8 7 4 2 3 4 5 5 6 6 7 5 5 2 3 4 4 3 3 5 4 4 5 5 6 5 5 5 4 5 3
8 5 6 6 6 6 5 6 6 7 7 5 5 4 4 5 5 7 7 8 8 8 4 4 4 5 5 5 6 5 4 5 7 7 7 7 6 6 5 5 5 6 7 6 5 5 4 3 2
13 9 8 9 9 10 9 8 7 7 9 7 8 7 6 6 6 5 6 7 7 8 9 6 4 4 4 4 3 2 3 6 7 6 6 7 6 6 5 4 7 8 7 6 5 5 5 5 4
14 10 9 8 8 9 9 10 8 11 8 10 8 8 7 5 6 7 9 9 11 11 8 7 5 4 4 4 3 2 3 6 5 4 4 4 5 4 4 6 7 7 6 5 6 7 8 8 8
13 12 9 8 8 7 8 6 7 6 7 7 6 5 5 6 5 6 8 9 9 9 9 7 4 4 4 3 2 2 5 6 6 6 5 6 5 5 6 7 7 5 5 6 5 6 6 6 5
9 13 11 7 9 8 6 7 6 7 7 7 8 8 6 5 3 4 6 9 9 9 8 6 5 4 4 3 3 4 4 4 6 6 7 7 7 6 7 8 7 6 6 6 5 5 6 6 6
8 8 7 9 6 8 9 8 8 14 19 19 17 15 12 9 9 10 7 5 5 7 7 7 5 5 5 4 4 6 5 7 5 7 7 7 7 8 8 7 7 6 6 6 6 6 5 4 4
4 11 11 9 10 11 11 8 7 6 6 7 8 9 11 13 12 12 16 13 6 5 5 5 7 5 4 5 8 5 6 6 7 7 8 7 7 5 7 7 6 6 6 6 5 3 3 3 3
5 7 8 7 6 5 5 3 3 4 2 3 4 4 5 5 7 8 8 8 8 6 6 6 4 7 8 7 5 5 6 8 8 7 7 5 4 4 6 6 6 4 4 5 4 1 2 3 4
3 5 8 7 7 6 4 2 2 3 2 2 3 3 4 4 5 4 4 6 8 8 7 7 6 6 6 6 7 8 8 6 5 6 7 4 5 4 4 4 5 5 2 2 2 3 4 5 4
1 3 3 4 7 8 7 5 4 2 2 2 3 3 4 3 4 5 5 6 7 7 8 7 7 7 6 6 6 6 6 5 5 6 5 5 5 3 2 3 4 4 5 5 5 3 2 3 6
2 3 3 3 3 4 5 5 8 7 4 3 4 5 4 4 5 5 5 5 7 6 8 7 6 5 5 5 4 3 3 4 3 3 4 4 3 3 3 4 5 4 4 5 6 2 4 6 7
3 3 2 2 2 1 4 4 5 7 11 10 6 5 4 3 2 0 1 3 4 5 7 5 3 4 5 5 4 3 3 3 5 6 5 4 3 3 2 3 5 5 6 5 3 5 9 8 6
2 1 1 2 2 3 3 4 4 5 5 6 8 9 9 10 9 8 6 5 6 8 6 5 5 6 4 3 3 4 5 4 3 2 2 3 4 4 5 4 4 5 5 4 6 6 5 4 7
7 6 4 6 3 2 3 6 5 5 5 4 3 5 6 8 8 9 9 9 9 10 10 9 7 6 6 5 4 3 2 3 4 5 5 5 6 6 6 7 8 7 8 9 7 9 5 8 13
2 0 4 4 3 4 3 3 3 5 6 6 6 7 8 7 5 8 10 10 8 7 6 6 8 7 7 6 6 6 7 7 7 8 7 5 5 6 7 7 8 8 7 5 5 6 1 1 2
2 1 4 1 3 3 3 5 6 7 7 7 6 5 7 9 10 9 9 10 11 11 10 9 8 7 7 7 6 6 6 6 5 5 5 6 6 7 7 7 7 7 7 9 10 10 13 12 14
5 4 4 5 4 3 5 6 6 5 6 7 5 4 4 6 9 10 10 10 11 12 11 8 7 6 6 7 7 5 5 5 6 7 8 9 9 9 9 10 9 7 7 9 9 10 10 8 6
6 5 4 2 2 3 3 0 5 9 7 7 9 12 14 16 15 12 10 11 7 4 5 6 6 4 4 4 4 5 8 8 9 10 11 11 10 9 9 8 9 8 7 7 7 8 8 10 12
Height
5830 5832 5834 5836 5840 5840 5841 5844 5844 5845 5846 5847 5848 5849 5851 5851 5852 5855 5854 5854 5855 5855 5856 5855 5855 5854 5854 5853 5851 5849 5847 5846 5846 5844 5842 5840 5838 5837 5837 5838 5839 5842 5844 5846 5848 5849 5850 5851 5852
5833 5834 5836 5838 5841 5843 5845 5846 5846 5847 5848 5849 5850 5852 5853 5854 5854 5856 5857 5857 5857 5857 5858 5858 5857 5857 5857 5855 5854 5852 5851 5850 5849 5848 5846 5845 5843 5842 5840 5839 5840 5842 5844 5846 5848 5850 5851 5852 5853
5835 5836 5838 5840 5842 5844 5847 5848 5849 5850 5851 5851 5852 5853 5854 5855 5856 5857 5858 5859 5859 5859 5860 5860 5859 5859 5859 5858 5857 5855 5854 5853 5852 5851 5850 5848 5847 5846 5845 5844 5842 5843 5845 5847 5849 5851 5851 5852 5852
5836 5838 5840 5842 5843 5846 5847 5849 5850 5851 5852 5853 5853 5855 5856 5856 5857 5858 5859 5860 5860 5861 5861 5861 5861 5861 5861 5860 5859 5858 5857 5856 5855 5854 5853 5852 5851 5850 5849 5849 5848 5848 5848 5849 5851 5852 5852 5852 5853
5837 5838 5840 5842 5844 5846 5847 5849 5850 5852 5853 5854 5854 5855 5856 5857 5858 5859 5860 5860 5861 5862 5862 5862 5862 5862 5862 5862 5861 5860 5859 5858 5857 5857 5856 5856 5855 5854 5854 5853 5853 5852 5852 5853 5853 5853 5854 5854 5854
5836 5838 5840 5842 5844 5845 5847 5849 5850 5851 5853 5854 5854 5855 5856 5857 5859 5859 5860 5861 5861 5862 5862 5863 5863 5863 5863 5863 5862 5861 5861 5860 5859 5859 5858 5858 5857 5857 5856 5856 5855 5855 5855 5855 5855 5855 5855 5855 5855
5835 5837 5839 5841 5842 5844 5846 5848 5850 5851 5852 5853 5854 5854 5856 5857 5858 5859 5859 5860 5861 5862 5862 5863 5863 5863 5863 5863 5863 5863 5862 5861 5861 5860 5859 5859 5859 5858 5858 5858 5857 5857 5857 5857 5857 5857 5857 5856 5857
5833 5836 5839 5840 5841 5843 5845 5847 5849 5850 5850 5851 5852 5853 5854 5855 5856 5857 5858 5858 5859 5861 5862 5862 5863 5863 5863 5863 5863 5863 5862 5862 5861 5860 5860 5860 5859 5859 5859 5859 5858 5858 5858 5859 5859 5858 5858 5858 5857
5830 5834 5837 5839 5840 5842 5843 5845 5847 5849 5849 5850 5851 5852 5853 5853 5855 5856 5857 5857 5858 5859 5860 5860 5860 5860 5861 5861 5861 5861 5861 5861 5861 5861 5861 5860 5860 5860 5860 5860 5859 5859 5859 5859 5858 5859 5858 5857 5856
5828 5830 5833 5836 5838 5840 5842 5844 5844 5847 5847 5848 5849 5850 5851 5852 5853 5854 5855 5856 5857 5858 5859 5859 5859 5859 5859 5860 5860 5860 5859 5860 5860 5860 5860 5860 5860 5860 5859 5859 5859 5858 5858 5857 5856 5856 5856 5856 5855
5823 5826 5829 5831 5834 5837 5840 5842 5843 5844 5845 5846 5847 5847 5849 5850 5850 5851 5852 5853 5855 5856 5856 5857 5857 5857 5858 5858 5858 5859 5859 5859 5859 5859 5859 5859 5858 5858 5858 5858 5858 5857 5857 5856 5856 5855 5855 5854 5854
5819 5822 5825 5827 5830 5833 5836 5838 5840 5842 5844 5844 5845 5845 5846 5847 5848 5849 5849 5850 5851 5851 5853 5854 5854 5855 5856 5857 5857 5858 5858 5858 5858 5858 5857 5857 5857 5857 5856 5856 5856 5855 5855 5854 5854 5853 5852 5852 5851
5814 5817 5820 5823 5826 5829 5831 5834 5836 5838 5840 5841 5841 5842 5842 5844 5845 5846 5846 5846 5847 5849 5850 5851 5852 5853 5854 5854 5855 5856 5856 5856 5856 5856 5855 5855 5854 5854 5854 5854 5853 5852 5851 5851 5850 5850 5849 5848 5847
5811 5813 5816 5819 5822 5825 5827 5829 5831 5833 5836 5836 5837 5838 5839 5841 5843 5843 5844 5844 5844 5845 5847 5848 5850 5850 5851 5852 5853 5853 5853 5854 5853 5853 5853 5852 5851 5851 5850 5850 5849 5849 5848 5847 5846 5846 5845 5844 5843
5807 5810 5812 5815 5818 5821 5823 5825 5825 5830 5829 5831 5833 5835 5836 5837 5839 5840 5841 5842 5842 5843 5844 5846 5847 5847 5848 5848 5849 5850 5850 5850 5850 5850 5849 5849 5848 5847 5847 5846 5846 5845 5844 5843 5843 5842 5840 5839 5838
5804 5806 5808 5811 5814 5817 5819 5821 5822 5823 5825 5828 5830 5831 5832 5833 5834 5835 5837 5838 5840 5840 5841 5842 5843 5844 5845 5845 5845 5846 5846 5846 5846 5846 5846 5845 5844 5843 5842 5842 5841 5841 5840 5839 5838 5837 5836 5834 5833
5802 5803 5804 5806 5809 5812 5814 5816 5816 5819 5822 5824 5826 5828 5829 5830 5830 5832 5833 5834 5836 5837 5838 5839 5840 5840 5841 5841 5841 5841 5841 5841 5841 5841 5841 5840 5839 5838 5837 5837 5836 5835 5834 5833 5832 5831 5829 5828 5826
5799 5799 5800 5802 5805 5807 5809 5810 5812 5816 5818 5819 5821 5823 5825 5826 5827 5828 5829 5830 5831 5833 5835 5835 5836 5837 5837 5837 5837 5837 5837 5836 5836 5835 5835 5834 5834 5833 5832 5831 5830 5829 5828 5827 5826 5824 5823 5821 5819
5794 5797 5799 5800 5802 5803 5805 5806 5810 5813 5814 5816 5817 5819 5820 5821 5822 5823 5824 5825 5827 5827 5828 5830 5831 5832 5833 5833 5832 5832 5831 5830 5830 5829 5829 5828 5828 5827 5826 5825 5824 5823 5822 5820 5819 5818 5816 5814 5812
5789 5792 5794 5796 5797 5799 5802 5804 5806 5809 5811 5812 5814 5816 5817 5818 5819 5819 5819 5820 5821 5822 5822 5823 5823 5825 5826 5826 5826 5826 5825 5824 5823 5823 5822 5822 5821 5820 5819 5818 5817 5816 5815 5813 5812 5810 5809 5807 5805
5784 5787 5788 5791 5792 5794 5796 5799 5802 5804 5807 5809 5810 5811 5813 5814 5815 5815 5816 5816 5816 5817 5817 5818 5818 5819 5819 5819 5820 5819 5818 5818 5817 5817 5816 5815 5815 5813 5812 5811 5810 5809 5808 5806 5804 5803 5800 5798 5796
5776 5779 5780 5784 5786 5789 5790 5794 5797 5799 5802 5804 5806 5807 5808 5809 5810 5811 5811 5812 5812 5811 5811 5811 5812 5812 5811 5811 5811 5811 5811 5811 5811 5810 5809 5808 5807 5805 5804 5803 5802 5800 5799 5797 5795 5793 5790 5788 5785
5770 5772 5774 5776 5777 5780 5784 5785 5792 5794 5797 5799 5801 5802 5803 5803 5804 5805 5806 5806 5807 5806 5806 5805 5805 5804 5804 5803 5803 5803 5802 5801 5801 5801 5800 5798 5797 5796 5794 5793 5792 5791 5789 5786 5783 5781 5779 5776 5773
5762 5765 5767 5767 5768 5769 5778 5776 5785 5787 5791 5793 5794 5795 5796 5797 5797 5798 5799 5800 5800 5800 5800 5799 5799 5798 5797 5796 5795 5795 5794 5793 5793 5793 5792 5790 5788 5786 5784 5783 5781 5778 5776 5774 5771 5769 5766 5763 5760
5754 5759 5757 5758 5759 5763 5771 5767 5775 5779 5782 5785 5787 5787 5788 5788 5789 5790 5790 5791 5791 5792 5792 5792 5791 5790 5790 5789 5787 5786 5785 5785 5784 5783 5782 5780 5778 5775 5773 5771 5768 5765 5763 5761 5758 5756 5753 5749 5747
5746 5748 5750 5750 5752 5756 5759 5754 5765 5772 5774 5775 5777 5778 5779 5780 5780 5780 5781 5781 5781 5782 5782 5783 5783 5782 5781 5781 5779 5778 5776 5774 5773 5771 5770 5768 5766 5763 5761 5758 5756 5753 5750 5747 5744 5742 5740 5736 5733
5734 5736 5743 5742 5740 5742 5744 5750 5758 5763 5766 5768 5768 5768 5768 5768 5769 5769 5770 5772 5772 5772 5773 5773 5772 5772 5771 5771 5769 5768 5766 5764 5762 5760 5758 5755 5753 5750 5748 5744 5742 5739 5736 5733 5730 5727 5725 5721 5719
5721 5729 5731 5730 5729 5731 5731 5737 5746 5755 5756 5756 5757 5757 5757 5757 5757 5757 5758 5759 5761 5761 5762 5762 5761 5761 5760 5759 5757 5756 5755 5753 5751 5748 5746 5743 5740 5737 5734 5731 5728 5724 5721 5718 5714 5712 5709 5707 5704
5713 5717 5719 5723 5721 5721 5722 5725 5736 5741 5743 5746 5746 5746 5746 5746 5746 5746 5747 5747 5748 5748 5749 5749 5748 5748 5748 5747 5745 5743 5741 5740 5738 5735 5732 5730 5726 5723 5720 5717 5715 5711 5708 5704 5701 5698 5694 5690 5686
5701 5703 5705 5707 5712 5715 5714 5714 5720 5725 5732 5734 5734 5734 5735 5735 5736 5736 5736 5736 5736 5736 5736 5735 5735 5735 5734 5734 5732 5730 5728 5725 5722 5720 5717 5715 5713 5710 5707 5704 5700 5696 5693 5688 5683 5680 5676 5671 5667